www.pogodaiklimat.ru

Погода и климат >> Архив погоды >> Япония >> Киото


ПОГОДА в Киото

  • Прогноз погоды в Киото
  • Монитор погоды в Киото

АРХИВ ПОГОДЫ в Киото

Время (UTC), дата Ветер
(напр.,м/с)
 
Видим.   Явления Облачность Т
(С)
Тd
(С)
f
(%)
Тe
(С)
Тes
(С)
Комфортность P
(гПа)
Po
(гПа)
Тmin
(С)
Tmax
(С)
R
(мм)
R24
(мм)
S
(см)
10 10.08 ЮВ 3 н/о н/о +32.5 +22.0 54 +41 +41 опасность
перегрева
1006.3 1000.5
11 10.08 Ю 3 н/о н/о +31.3 +21.8 57 +40 +40 очень
душно
1007.1 1001.2
12 10.08 В 3 25 км 1/0
[Ci sp]
+30.7 +21.8 59 +39 +39 очень
душно
1007.9 1002.0 +38.6
13 10.08 В 1 н/о н/о +30.3 +22.2 62 +39 +39 очень
душно
1008.3 1002.4
14 10.08 СВ 2 н/о н/о +30.1 +22.5 64 +39 +39 очень
душно
1008.3 1002.4
15 10.08 С 2 н/о н/о +29.3 +22.8 68 +39 +39 очень
душно
1008.0 1002.1
16 10.08 СВ 2 н/о н/о +28.9 +22.6 69 +38 +38 очень
душно
1007.9 1002.0
17 10.08 СВ 2 н/о н/о +28.7 +22.9 71 +38 +38 очень
душно
1007.8 1001.9
18 10.08 СЗ 1 20 км ясно +28.2 +22.9 73 +38 +38 очень
душно
1007.4 1001.5
19 10.08 С 2 н/о н/о +27.8 +23.2 76 +37 +37 очень
душно
1007.3 1001.4
20 10.08 С 2 н/о н/о +27.5 +23.1 77 +37 +37 очень
душно
1007.5 1001.6
21 10.08 СВ 2 н/о н/о +27.4 +23.0 77 +37 +37 очень
душно
1007.8 1001.9
22 10.08 СВ 1 н/о н/о +29.0 +23.0 70 +39 +39 очень
душно
1007.7 1001.8
23 10.08 В 2 н/о н/о +30.5 +20.7 56 +38 +38 очень
душно
1007.4 1001.5
00 11.08 В 3 35 км 1/1
[Cu hum Ci fib]
+32.2 +22.0 55 +41 +50 опасность
перегрева
1007.4 1001.6 +27.3
01 11.08 В 3 н/о н/о +32.7 +21.6 52 +41 +41 опасность
перегрева
1007.0 1001.2
02 11.08 В 3 н/о н/о +35.1 +22.8 49 +45 +45 опасность
перегрева
1006.5 1000.7
03 11.08 В 2 н/о н/о +35.8 +22.4 46 +45 +45 опасность
перегрева
1006.1 1000.3
04 11.08 СВ 6 н/о н/о +36.5 +21.9 43 +45 +45 опасность
перегрева
1005.3 999.6
05 11.08 СВ 7 н/о н/о +36.8 +18.8 35 +41 +41 опасность
перегрева
1004.8 999.1
06 11.08 СВ 6 30 км 6/3
[Cu med, cong Ci sp]
+36.9 +19.8 37 +42 +45 опасность
перегрева
1004.3 998.6
07 11.08 В 4 н/о н/о +35.8 +22.0 45 +44 +44 опасность
перегрева
1004.5 998.7
08 11.08 В 4 н/о н/о +35.1 +22.4 48 +44 +44 опасность
перегрева
1004.6 998.8
09 11.08 В 4 н/о н/о +33.7 +22.5 52 +43 +43 опасность
перегрева
1004.9 999.1
10 11.08 В 3 н/о н/о +32.6 +22.4 55 +42 +42 опасность
перегрева
1005.8 1000.0
11 11.08 В 4 н/о н/о +31.8 +23.1 60 +42 +42 опасность
перегрева
1006.9 1001.1
12 11.08 В 4 25 км 5/1
[Cu Sc Ac trans Ci fib]
+31.4 +22.1 58 +40 +40 очень
душно
1007.9 1002.0 +37.7
13 11.08 В 3 н/о н/о +30.5 +22.9 64 +40 +40 очень
душно
1007.9 1002.0
14 11.08 В 3 н/о н/о +30.2 +21.8 61 +39 +39 очень
душно
1007.8 1001.9
15 11.08 В 3 н/о н/о +29.2 +22.4 67 +38 +38 очень
душно
1007.6 1001.7
16 11.08 В 3 н/о н/о +28.8 +22.5 69 +38 +38 очень
душно
1006.9 1001.0
17 11.08 В 2 н/о н/о +28.6 +22.6 70 +38 +38 очень
душно
1006.1 1000.2
18 11.08 СВ 2 25 км 9/9
[Cu med, cong]
+28.6 +22.8 71 +38 +38 очень
душно
1006.1 1000.2
19 11.08 В 2 н/о н/о +28.7 +23.2 72 +39 +39 очень
душно
1005.9 1000.0
20 11.08 СВ 2 н/о н/о +28.5 +23.6 75 +39 +39 очень
душно
1006.3 1000.4
21 11.08 В 2 н/о н/о +28.7 +22.9 71 +38 +38 очень
душно
1006.8 1000.9
22 11.08 СВ 3 н/о н/о +29.7 +23.6 70 +41 +41 опасность
перегрева
1007.0 1001.1
23 11.08 В 4 н/о н/о +30.6 +23.0 64 +41 +41 опасность
перегрева
1006.9 1001.0
00 12.08 В 5 20 км 9/4
[Cu med, cong Ac trans Ci sp]
+32.4 +23.1 58 +43 +45 опасность
перегрева
1006.5 1000.7 +28.4
01 12.08 В 4 н/о н/о +32.3 +22.4 56 +42 +42 опасность
перегрева
1006.5 1000.7
02 12.08 ЮВ 5 н/о н/о +33.4 +23.1 55 +44 +44 опасность
перегрева
1006.3 1000.5
03 12.08 ЮВ 4 н/о н/о +33.5 +22.9 54 +44 +44 опасность
перегрева
1005.8 1000.0
04 12.08 В 4 н/о н/о +33.9 +22.3 51 +43 +43 опасность
перегрева
1005.4 999.6
05 12.08 В 6 н/о н/о +35.1 +21.0 44 +42 +42 опасность
перегрева
1005.1 999.3
06 12.08 В 4 35 км 9/3
[Cu med, cong Ci sp]
+35.2 +21.1 44 +42 +47 опасность
перегрева
1004.7 998.9
07 12.08 В 6 н/о н/о +34.6 +21.6 47 +43 +43 опасность
перегрева
1004.7 998.9
08 12.08 В 5 н/о н/о +33.7 +20.8 47 +41 +41 опасность
перегрева
1004.6 998.8
09 12.08 В 3 н/о н/о +33.0 +21.5 51 +41 +41 опасность
перегрева
1004.5 998.7
10 12.08 В 4 н/о н/о +32.0 +21.2 53 +40 +40 очень
душно
1005.0 999.2
11 12.08 В 4 н/о н/о +31.4 +21.9 57 +40 +40 очень
душно
1005.7 999.9
12 12.08 СВ 3 15 км 9/3
[Cu med, cong Ci sp]
+30.6 +22.5 62 +40 +40 очень
душно
1006.2 1000.3 +35.7
13 12.08 В 3 н/о н/о +30.2 +22.6 64 +40 +40 очень
душно
1006.2 1000.3
14 12.08 СВ 3 н/о н/о +30.0 +22.7 65 +40 +40 очень
душно
1005.7 999.8
15 12.08 В 3 н/о н/о +29.9 +22.9 66 +40 +40 очень
душно
1005.3 999.4
16 12.08 В 4 н/о н/о +29.6 +22.8 67 +39 +39 очень
душно
1004.7 998.8
17 12.08 В 2 н/о н/о +29.4 +23.1 69 +39 +39 очень
душно
1004.1 998.2
18 12.08 В 3 15 км 3/3
[Cu Sc]
+29.1 +23.3 71 +39 +39 очень
душно
1003.7 997.8
19 12.08 В 3 н/о н/о +29.1 +23.3 71 +39 +39 очень
душно
1003.5 997.6
20 12.08 В 3 н/о н/о +29.1 +23.3 71 +39 +39 очень
душно
1003.8 997.9
21 12.08 В 3 н/о н/о +29.6 +23.1 68 +40 +40 очень
душно
1004.2 998.3
22 12.08 В 4 н/о н/о +31.1 +23.2 63 +42 +42 опасность
перегрева
1004.4 998.6
23 12.08 В 4 н/о н/о +30.9 +23.0 63 +41 +41 опасность
перегрева
1004.5 998.7
00 13.08 СВ 5 25 км 9/9
[Cu Sc Ac trans Ci fib]
+32.4 +23.1 58 +43 +43 опасность
перегрева
1004.2 998.4 +28.9
01 13.08 СВ 4 н/о н/о +33.4 +22.8 54 +43 +43 опасность
перегрева
1003.9 998.1
02 13.08 В 6 н/о н/о +34.0 +22.1 50 +43 +43 опасность
перегрева
1003.4 997.6
03 13.08 В 5 н/о н/о +34.6 +22.3 49 +44 +44 опасность
перегрева
1003.1 997.3
04 13.08 В 6 н/о н/о +35.2 +21.8 46 +43 +43 опасность
перегрева
1002.9 997.1
05 13.08 В 6 н/о н/о +34.4 +22.1 49 +43 +43 опасность
перегрева
1002.9 997.1
06 13.08 В 6 40 км 8/8
[Cu Sc Ci sp]
+35.4 +22.7 48 +45 +46 опасность
перегрева
1002.6 996.8
07 13.08 В 5 н/о н/о +34.7 +23.1 51 +45 +45 опасность
перегрева
1002.3 996.5
08 13.08 ЮВ 5 н/о н/о +33.9 +22.3 51 +43 +43 опасность
перегрева
1002.2 996.4
09 13.08 В 6 н/о н/о +32.4 +22.5 56 +42 +42 опасность
перегрева
1002.7 996.9
10 13.08 В 4 н/о н/о +31.5 +23.1 61 +42 +42 опасность
перегрева
1003.4 997.6
11 13.08 В 5 н/о н/о +30.8 +23.5 65 +42 +42 опасность
перегрева
1004.0 998.2
12 13.08 СВ 4 25 км 5/3
[Cu med, cong Ac trans Ci sp]
+30.4 +23.8 68 +42 +42 опасность
перегрева
1004.3 998.4 +36.1
13 13.08 СВ 3 н/о н/о +30.2 +23.9 69 +42 +42 опасность
перегрева
1004.0 998.1
14 13.08 СВ 5 н/о н/о +30.2 +23.9 69 +42 +42 опасность
перегрева
1003.6 997.7
15 13.08 В 5 н/о н/о +29.9 +24.1 71 +41 +41 опасность
перегрева
1003.1 997.2
16 13.08 В 5 н/о н/о +29.7 +24.1 72 +41 +41 опасность
перегрева
1002.5 996.6
17 13.08 В 6 н/о н/о +29.8 +23.7 70 +41 +41 опасность
перегрева
1002.0 996.1
18 13.08 В 5 25 км 9/9
[Cu med, cong]
+29.5 +23.9 72 +41 +41 опасность
перегрева
1001.8 995.9
19 13.08 В 5 н/о н/о +29.4 +23.8 72 +40 +40 очень
душно
1001.7 995.8
20 13.08 В 6 н/о н/о +29.5 +23.7 71 +40 +40 очень
душно
1001.5 995.6
21 13.08 В 6 н/о н/о +28.6 +24.2 77 +40 +40 очень
душно
1001.6 995.7
22 13.08 В 5 н/о н/о +29.3 +24.4 75 +41 +41 опасность
перегрева
1001.6 995.7
23 13.08 В 5 н/о н/о +29.9 +24.1 71 +41 +41 опасность
перегрева
1001.9 996.0
00 14.08 В 5 25 км в посл. час ливневой дождь 9/9
[Cu med, cong]
+30.7 +24.4 69 +43 +44 опасность
перегрева
1001.7 995.9 +28.1 0.0
01 14.08 В 6 н/о н/о +31.9 +24.5 65 +45 +45 опасность
перегрева
1001.2 995.4
02 14.08 В 7 н/о н/о +32.5 +23.2 58 +43 +43 опасность
перегрева
1001.0 995.2
03 14.08 В 6 н/о н/о +33.7 +22.8 53 +44 +44 опасность
перегрева
999.4 993.6
04 14.08 В 5 н/о н/о +32.5 +22.9 57 +43 +43 опасность
перегрева
999.5 993.7
05 14.08 В 5 н/о н/о +31.6 +23.2 61 +42 +42 опасность
перегрева
999.1 993.3
06 14.08 В 6 20 км слаб. ливневой дождь 9/9
[Cu med, cong]
+29.0 +25.6 82 +43 +43 опасность
перегрева
998.9 993.0 0.0
07 14.08 В 6 н/о н/о +30.9 +25.0 71 +44 +44 опасность
перегрева
998.5 992.7
08 14.08 В 6 н/о н/о +30.4 +25.0 73 +44 +44 опасность
перегрева
998.7 992.9
09 14.08 В 4 н/о н/о +29.4 +25.4 79 +43 +43 опасность
перегрева
998.8 993.0
10 14.08 В 4 н/о н/о +29.2 +25.4 80 +43 +43 опасность
перегрева
998.6 992.8
11 14.08 В 4 н/о н/о +29.1 +25.3 80 +42 +42 опасность
перегрева
999.1 993.2
12 14.08 В 5 15 км в посл. час ливневой дождь 9/9
[Cu med, cong]
+29.6 +24.9 76 +42 +42 опасность
перегрева
999.2 993.4 +34.3 0.5
13 14.08 В 4 н/о н/о +29.8 +24.2 72 +42 +42 опасность
перегрева
998.9 993.1
14 14.08 В 4 н/о н/о +29.7 +23.9 71 +41 +41 опасность
перегрева
998.6 992.8
15 14.08 В 6 н/о н/о +29.9 +23.6 69 +41 +41 опасность
перегрева
997.6 991.8
16 14.08 В 6 н/о н/о +29.9 +23.4 68 +40 +40 очень
душно
996.4 990.6
17 14.08 В 7 н/о н/о +29.7 +23.6 70 +41 +41 опасность
перегрева
996.6 990.8
18 14.08 В 8 15 км {ливн. осадки} 9/5
[Cu med, cong Ac As]
+29.7 +23.2 68 +40 +40 очень
душно
995.5 989.7 0.0
20 14.08 В 7 н/о н/о +30.0 +23.2 67 +40 +40 очень
душно
995.0 989.2
21 14.08 В 9 н/о н/о +30.1 +23.1 66 +40 +40 очень
душно
994.8 989.0
23 14.08 В 8 н/о н/о +30.2 +23.6 68 +41 +41 опасность
перегрева
993.5 987.7
00 15.08 В 9 25 км слаб. ливневой дождь 9/6
[Cu med, cong Ac As]
+30.5 +23.7 67 +42 +42 опасность
перегрева
993.4 987.6 +29.4 0.0
01 15.08 В 9 н/о н/о +31.2 +23.6 64 +42 +42 опасность
перегрева
992.9 987.1
03 15.08 В 7 н/о н/о +30.8 +24.5 69 +43 +43 опасность
перегрева
991.3 985.5
04 15.08 В 6 н/о н/о +31.3 +23.4 63 +42 +42 опасность
перегрева
990.2 984.4
06 15.08 В 8 10 км в посл. час ливневой дождь 9/5
[Cu med, cong Ac As]
+31.1 +24.0 66 +43 +43 опасность
перегрева
988.4 982.6 0.5
07 15.08 В 8 н/о н/о +30.8 +24.2 68 +43 +43 опасность
перегрева
987.6 981.8
08 15.08 В 6 н/о н/о +29.0 +25.0 79 +42 +42 опасность
перегрева
986.9 981.1
09 15.08 В 6 н/о н/о +29.1 +25.1 79 +42 +42 опасность
перегрева
986.3 980.5
10 15.08 ЮВ 5 н/о н/о +27.7 +25.3 87 +40 +40 очень
душно
987.0 981.2
11 15.08 ЮВ 4 н/о н/о +27.3 +25.3 89 +40 +40 очень
душно
987.9 982.1
12 15.08 ЮВ 3 8000 м сильн. ливневой дождь 10/10
[Cu med, cong]
+26.6 +25.9 96 +40 +40 очень
душно
987.9 982.1 +33.5 21
13 15.08 ЮВ 3 н/о н/о +26.3 +26.0 98 +39 +39 очень
душно
987.9 982.1
14 15.08 Ю 6 н/о н/о +26.2 +26.0 99 +39 +39 очень
душно
988.8 982.9
15 15.08 Ю 5 н/о н/о +26.2 +26.0 99 +39 +39 очень
душно
989.5 983.6
16 15.08 Ю 7 н/о н/о +26.3 +25.8 97 +39 +39 очень
душно
990.2 984.3
17 15.08 Ю 5 н/о н/о +26.5 +26.0 97 +40 +40 очень
душно
990.8 984.9
18 15.08 Ю 5 10 км слаб. ливневой дождь 10/10
[Cu med, cong]
+26.6 +25.4 93 +39 +39 очень
душно
991.6 985.7 58
19 15.08 Ю 5 н/о н/о +26.1 +25.8 98 +38 +38 очень
душно
992.6 986.7
20 15.08 Ю 5 н/о н/о +26.1 +25.9 99 +39 +39 очень
душно
993.4 987.5
21 15.08 Ю 2 н/о н/о +26.1 +25.9 99 +39 +39 очень
душно
994.7 988.8
22 15.08 ЮЗ 5 н/о н/о +27.2 +25.2 89 +39 +39 очень
душно
995.6 989.7
23 15.08 ЮЗ 5 н/о н/о +27.7 +25.2 86 +40 +40 очень
душно
996.5 990.6
00 16.08 Ю 5 10 км слаб. ливневой дождь 9/9
[Cu med, cong Ac As Ci sp]
+27.8 +25.1 85 +40 +41 очень
душно
997.3 991.4 +26.0 90
01 16.08 ЮЗ 4 н/о н/о +30.4 +25.0 73 +44 +44 опасность
перегрева
997.4 991.6
02 16.08 ЮЗ 6 н/о н/о +31.8 +23.6 62 +43 +43 опасность
перегрева
997.3 991.5
03 16.08 Ю 6 н/о н/о +32.4 +23.1 58 +43 +43 опасность
перегрева
997.1 991.3
04 16.08 ЮЗ 7 н/о н/о +33.7 +23.1 54 +44 +44 опасность
перегрева
997.2 991.4
05 16.08 ЮЗ 5 н/о н/о +34.1 +22.8 52 +44 +44 опасность
перегрева
997.2 991.5
06 16.08 ЮЗ 3 20 км {ливн. осадки} 8/8
[Cu med, cong Ci sp]
+33.8 +22.9 53 +44 +45 опасность
перегрева
997.2 991.4 0.0
07 16.08 Ю 5 н/о н/о +32.6 +22.7 56 +42 +42 опасность
перегрева
997.7 991.9
08 16.08 ЮЗ 4 н/о н/о +31.8 +23.1 60 +42 +42 опасность
перегрева
998.1 992.3
09 16.08 Ю 5 н/о н/о +30.9 +23.0 63 +41 +41 опасность
перегрева
998.9 993.1
11 16.08 ЮЗ 3 н/о н/о +29.7 +23.4 69 +40 +40 очень
душно
1000.8 994.9
13 16.08 ЮЗ 4 н/о н/о +29.3 +23.0 69 +39 +39 очень
душно
1001.2 995.3
15 16.08 ЮЗ 3 н/о н/о +29.1 +22.4 67 +38 +38 очень
душно
1001.7 995.8
16 16.08 З 2 н/о н/о +28.6 +22.8 71 +38 +38 очень
душно
1001.7 995.8
17 16.08 СЗ 1 н/о н/о +28.5 +22.7 71 +38 +38 очень
душно
1001.9 996.0
18 16.08 В 1 15 км 10/10
[Cu Sc]
+28.3 +23.0 73 +38 +38 очень
душно
1002.1 996.2
19 16.08 В 1 н/о н/о +28.0 +23.4 76 +38 +38 очень
душно
1002.5 996.6
20 16.08 Ю 2 н/о н/о +27.6 +23.2 77 +37 +37 очень
душно
1002.9 997.0
21 16.08 ЮЗ 1 н/о н/о +27.4 +23.2 78 +37 +37 очень
душно
1003.5 997.6
22 16.08 В 1 н/о н/о +27.8 +23.2 76 +37 +37 очень
душно
1003.8 997.9
23 16.08 Ю 2 н/о н/о +29.4 +23.6 71 +40 +40 очень
душно
1003.9 998.0
00 17.08 ЮЗ 2 15 км слаб. ливневой дождь 9/9
[Cu med, cong]
+29.4 +23.8 72 +40 +42 очень
душно
1004.1 998.2 +27.1 0.0
01 17.08 В 2 н/о н/о +31.4 +22.4 59 +41 +41 опасность
перегрева
1003.7 997.9
02 17.08 ЮЗ 3 н/о н/о +32.5 +21.7 53 +41 +41 опасность
перегрева
1003.6 997.8
03 17.08 Ю 3 н/о н/о +32.9 +21.7 52 +41 +41 опасность
перегрева
1003.1 997.3
04 17.08 ЮЗ 2 н/о н/о +34.2 +19.9 43 +40 +40 очень
душно
1002.7 996.9
05 17.08 Ю 4 н/о н/о +35.6 +21.1 43 +43 +43 опасность
перегрева
1002.2 996.5
06 17.08 Ю 4 20 км 5/3
[Cu med, cong Ac trans Ci fib]
+34.3 +20.7 45 +41 +45 опасность
перегрева
1002.1 996.3
07 17.08 Ю 4 н/о н/о +35.2 +20.4 42 +42 +42 опасность
перегрева
1002.2 996.4
08 17.08 Ю 3 н/о н/о +34.6 +20.6 44 +41 +41 опасность
перегрева
1002.3 996.5
09 17.08 ЮЗ 2 н/о н/о +33.5 +21.0 48 +41 +41 опасность
перегрева
1002.5 996.7
10 17.08 ЮВ 2 н/о н/о +32.4 +21.6 53 +41 +41 опасность
перегрева
1003.1 997.3

 

Местоположение метеостанции Киото (Япония): широта 35.02 долгота 135.73 высота над уровнем моря 46 м.

В архиве по умолчанию представлена погода в Киото за последнюю неделю. Архивные данные за месяц целиком и за предыдущие месяцы, начиная с января 2011 года, Вы можете получить, выбрав интересующий диапазон дат из раскрывающегося списка и нажав кнопку "Ввод!".


*Определитесь, кто Вы:
робот инопланетянин человек

Внимание! Время в таблицах - всемирное. Для получения местного времени необходимо прибавить поправку, которая равна 9 ч.

Смотрите также архив погоды в соседних городах и на ближайших метеорологических станциях:

Погода в Наре (Япония) (37 км)
Погода в Осаке (Япония) (43 км)
Погода в Уэно (Япония) (47 км)
Погода в Хиконе (Япония) (55 км)
Погода в Кобе (Япония) (59 км)
Погода в Майдзуру (Япония) (61 км)
Погода в Цуруге (Япония) (76 км)
Погода в Йоккаити (Япония) (78 км)
Погода в Цу (Япония) (78 км)
Погода в Химедзи (Япония) (100 км)

Пояснения к столбцам:

Ветер - указаны скорость ветра в м/с - средняя за 10 мин, порывы в срок и между сроками (в фигурных скобках) и направление, откуда дует ветер: С - северный, СВ - северо-восточный, В - восточный, ЮВ - юго-восточный, Ю - южный, ЮЗ - юго-западный, З - западный, СЗ - северо-западный.
Видимость - горизонтальная дальность видимости в метрах или километрах. При видимости от 1 до 10 км при отсутствии осадков обычно наблюдается дымка, при ухудшении видимости до 1 км и менее - туман. В сухую погоду видимость может ухудшаться дымом, пылью или мглою.
Явления - указаны атмосферные явления, наблюдавшиеся в срок или в последний час перед сроком; фигурными скобками обозначены явления, наблюдавшиеся между сроками (за 1-3 часа до срока); квадратными скобками обозначены град или гололедные отложения с указанием их диаметра в мм.
Облачность - указаны через наклонную черту общая и нижняя облачность в баллах и высота нижней границы облаков в метрах; квадратными скобками обозначены формы облаков: Ci - перистые, Cs - перисто-слоистые, Cc - перисто-кучевые, Ac - высококучевые, As - высокослоистые, Sc - слоисто-кучевые, Ns - слоисто-дождевые, Cu - кучевые, Cb - кучево-дождевые. Подробнее классификацию облаков см. в Атласе облаков (PDF).
T - Температура воздуха - температура, измеренная на высоте 2 м над землей.
Td - Температура точки росы - температура, при понижении до которой содержащийся в воздухе водяной пар достигнет насыщения.
f - Относительная влажность воздуха - влажноcть воздуха, измеренная на высоте 2 м над землей.
Te - Эффективная температура - температура, которую ощущает одетый по сезону человек в тени. Характеристика душности погоды. При расчете учитывается влияние влажности воздуха и скорости ветра на теплоощущения человека.
Tes - Эффективная температура на солнце - температура, которую ощущает человек, с поправкой на солнечный нагрев. Характеристика знойности погоды. Зависит от высоты солнца над горизонтом, облачности и скорости ветра. Ночью, в пасмурную погоду, а также при ветре 12 м/с и более поправка равна нулю.
P - Атмосферное давление - приведенное к уровню моря атмосферное давление.
Po - Атмосферное давление - измеренное на уровне метеостанции атмосферное давление.
Tmin - Минимальная температура - минимум температуры воздуха на высоте 2 м над землей.
Tmax - Максимальная температура - максимум температуры воздуха на высоте 2 м над землей.
R - Количество осадков - Количество выпавших осадков за период времени, мм. При наведении курсора мыши на число - период времени, за который выпало указанное количество осадков.
R24 - Количество осадков - Количество выпавших осадков за 24 часа, мм.
S - Снежный покров - Высота снежного покрова, см. При наведении курсора мыши на число - состояние снежного покрова и степень покрытия местности в баллах.